owner,sensor,date,latitude,longitude,vertical_datum,sea_water_practical_salinity,qcFlag 
SCCF RECON,ioos:station:SCCF:18:1,2019-10-01T04:00:00Z,26.6955,-81.8138,0.891,5.44,11111222 
SCCF RECON,ioos:station:SCCF:18:1,2019-10-01T05:00:00Z,26.6955,-81.8138,0.87,5.27,11111222 
SCCF RECON,ioos:station:SCCF:18:1,2019-10-01T06:00:00Z,26.6955,-81.8138,0.83,6.32,11111222 
SCCF RECON,ioos:station:SCCF:18:1,2019-10-01T07:00:00Z,26.6955,-81.8138,0.821,5.9,11111222 
SCCF RECON,ioos:station:SCCF:18:1,2019-10-01T08:00:00Z,26.6955,-81.8138,0.853,6.01,11111222 
SCCF RECON,ioos:station:SCCF:18:1,2019-10-01T09:00:00Z,26.6955,-81.8138,0.89,6.56,11111222 
SCCF RECON,ioos:station:SCCF:18:1,2019-10-01T10:00:00Z,26.6955,-81.8138,0.94,6.48,11111222 
SCCF RECON,ioos:station:SCCF:18:1,2019-10-01T11:00:00Z,26.6955,-81.8138,1.001,6.04,11111222 
SCCF RECON,ioos:station:SCCF:18:1,2019-10-01T12:00:00Z,26.6955,-81.8138,17.26,5.9,11111222 
SCCF RECON,ioos:station:SCCF:18:1,2019-10-01T13:00:00Z,26.6955,-81.8138,1.07,5.84,11111222 
SCCF RECON,ioos:station:SCCF:18:1,2019-10-01T14:00:00Z,26.6955,-81.8138,1.05,5.6,11111222 
SCCF RECON,ioos:station:SCCF:18:1,2019-10-01T15:00:00Z,26.6955,-81.8138,1.0,5.6,11111222 
SCCF RECON,ioos:station:SCCF:18:1,2019-10-01T16:00:00Z,26.6955,-81.8138,0.92,5.28,11111222 
SCCF RECON,ioos:station:SCCF:18:1,2019-10-01T18:00:00Z,26.6955,-81.8138,0.81,5.39,11111222 
SCCF RECON,ioos:station:SCCF:18:1,2019-10-01T19:00:00Z,26.6955,-81.8138,0.778,5.85,11111222 
SCCF RECON,ioos:station:SCCF:18:1,2019-10-01T20:00:00Z,26.6955,-81.8138,0.79,5.6,11111222 
SCCF RECON,ioos:station:SCCF:18:1,2019-10-01T21:00:00Z,26.6955,-81.8138,0.82,5.93,11111222 
SCCF RECON,ioos:station:SCCF:18:1,2019-10-01T23:00:00Z,26.6955,-81.8138,0.9,5.87,11111222 
SCCF RECON,ioos:station:SCCF:18:1,2019-10-02T04:00:00Z,26.6955,-81.8138,0.99,5.9,11111222 
SCCF RECON,ioos:station:SCCF:18:1,2019-10-02T05:00:00Z,26.6955,-81.8138,0.959,5.88,11111222 
SCCF RECON,ioos:station:SCCF:18:1,2019-10-02T06:00:00Z,26.6955,-81.8138,0.91,5.99,11111222 
SCCF RECON,ioos:station:SCCF:18:1,2019-10-02T07:00:00Z,26.6955,-81.8138,0.851,6.46,11111222 
SCCF RECON,ioos:station:SCCF:18:1,2019-10-02T08:00:00Z,26.6955,-81.8138,0.87,6.27,11111222 
SCCF RECON,ioos:station:SCCF:18:1,2019-10-02T09:00:00Z,26.6955,-81.8138,0.93,6.7,11111222 
SCCF RECON,ioos:station:SCCF:18:1,2019-10-02T10:00:00Z,26.6955,-81.8138,16.81,7.07,11111222 
SCCF RECON,ioos:station:SCCF:18:1,2019-10-02T11:00:00Z,26.6955,-81.8138,24.752,6.95,11111222 
SCCF RECON,ioos:station:SCCF:18:1,2019-10-02T12:00:00Z,26.6955,-81.8138,28.038,6.41,11111222 
SCCF RECON,ioos:station:SCCF:18:1,2019-10-02T13:00:00Z,26.6955,-81.8138,28.576,6.1,11111222 
SCCF RECON,ioos:station:SCCF:18:1,2019-10-02T14:00:00Z,26.6955,-81.8138,1.137,6.07,11111222 
SCCF RECON,ioos:station:SCCF:18:1,2019-10-02T15:00:00Z,26.6955,-81.8138,1.1,5.99,11111222 
SCCF RECON,ioos:station:SCCF:18:1,2019-10-02T17:00:00Z,26.6955,-81.8138,0.95,6.0,11111222 
SCCF RECON,ioos:station:SCCF:18:1,2019-10-02T18:00:00Z,26.6955,-81.8138,0.911,5.89,11111222 
SCCF RECON,ioos:station:SCCF:18:1,2019-10-02T19:00:00Z,26.6955,-81.8138,0.86,5.97,11111222 
SCCF RECON,ioos:station:SCCF:18:1,2019-10-02T20:00:00Z,26.6955,-81.8138,0.794,6.19,11111222 
SCCF RECON,ioos:station:SCCF:18:1,2019-10-02T21:00:00Z,26.6955,-81.8138,0.8,5.75,11111222 
SCCF RECON,ioos:station:SCCF:18:1,2019-10-02T22:00:00Z,26.6955,-81.8138,0.82,6.12,11111222 
SCCF RECON,ioos:station:SCCF:18:1,2019-10-03T04:00:00Z,26.6955,-81.8138,0.98,5.99,11111222 
SCCF RECON,ioos:station:SCCF:18:1,2019-10-03T05:00:00Z,26.6955,-81.8138,0.99,5.98,11111222 
SCCF RECON,ioos:station:SCCF:18:1,2019-10-03T06:00:00Z,26.6955,-81.8138,0.98,6.12,11111222 
SCCF RECON,ioos:station:SCCF:18:1,2019-10-03T07:00:00Z,26.6955,-81.8138,0.962,6.84,11111222 
SCCF RECON,ioos:station:SCCF:18:1,2019-10-03T08:00:00Z,26.6955,-81.8138,0.96,6.8,11111222 
SCCF RECON,ioos:station:SCCF:18:1,2019-10-03T09:00:00Z,26.6955,-81.8138,26.136,6.92,11111222 
SCCF RECON,ioos:station:SCCF:18:1,2019-10-03T10:00:00Z,26.6955,-81.8138,29.242,7.18,11111222 
SCCF RECON,ioos:station:SCCF:18:1,2019-10-03T11:00:00Z,26.6955,-81.8138,1.08,7.5,11111222 
SCCF RECON,ioos:station:SCCF:18:1,2019-10-03T12:00:00Z,26.6955,-81.8138,28.12,7.45,11111222 
SCCF RECON,ioos:station:SCCF:18:1,2019-10-03T13:00:00Z,26.6955,-81.8138,31.745,7.08,11111222 
SCCF RECON,ioos:station:SCCF:18:1,2019-10-03T14:00:00Z,26.6955,-81.8138,32.283,6.49,11111222 
SCCF RECON,ioos:station:SCCF:18:1,2019-10-03T15:00:00Z,26.6955,-81.8138,1.24,6.35,11111222 
SCCF RECON,ioos:station:SCCF:18:1,2019-10-03T16:00:00Z,26.6955,-81.8138,1.2,6.33,11111222 
SCCF RECON,ioos:station:SCCF:18:1,2019-10-03T17:00:00Z,26.6955,-81.8138,1.13,6.18,11111222 
SCCF RECON,ioos:station:SCCF:18:1,2019-10-03T19:00:00Z,26.6955,-81.8138,1.02,6.2,11111222 
SCCF RECON,ioos:station:SCCF:18:1,2019-10-03T20:00:00Z,26.6955,-81.8138,0.95,6.22,11111222 
SCCF RECON,ioos:station:SCCF:18:1,2019-10-03T21:00:00Z,26.6955,-81.8138,0.92,6.9,11111222 
SCCF RECON,ioos:station:SCCF:18:1,2019-10-03T22:00:00Z,26.6955,-81.8138,0.91,6.48,11111222 
SCCF RECON,ioos:station:SCCF:18:1,2019-10-03T23:00:00Z,26.6955,-81.8138,0.95,6.63,11111222 
SCCF RECON,ioos:station:SCCF:18:1,2019-10-04T04:00:00Z,26.6955,-81.8138,1.102,6.81,11111222 
SCCF RECON,ioos:station:SCCF:18:1,2019-10-04T05:00:00Z,26.6955,-81.8138,1.13,6.63,11111222 
SCCF RECON,ioos:station:SCCF:18:1,2019-10-04T06:00:00Z,26.6955,-81.8138,1.13,6.55,11111222 
SCCF RECON,ioos:station:SCCF:18:1,2019-10-04T07:00:00Z,26.6955,-81.8138,1.098,6.56,11111222 
SCCF RECON,ioos:station:SCCF:18:1,2019-10-04T08:00:00Z,26.6955,-81.8138,1.08,7.41,11111222 
SCCF RECON,ioos:station:SCCF:18:1,2019-10-04T09:00:00Z,26.6955,-81.8138,1.052,7.56,11111222 
SCCF RECON,ioos:station:SCCF:18:1,2019-10-04T10:00:00Z,26.6955,-81.8138,28.935,7.85,11111222 
SCCF RECON,ioos:station:SCCF:18:1,2019-10-04T11:00:00Z,26.6955,-81.8138,32.463,8.14,11111222 
SCCF RECON,ioos:station:SCCF:18:1,2019-10-04T12:00:00Z,26.6955,-81.8138,32.564,8.1,11111222 
SCCF RECON,ioos:station:SCCF:18:1,2019-10-04T13:00:00Z,26.6955,-81.8138,33.504,7.68,11111222 
SCCF RECON,ioos:station:SCCF:18:1,2019-10-04T14:00:00Z,26.6955,-81.8138,34.613,7.01,11111222 
SCCF RECON,ioos:station:SCCF:18:1,2019-10-04T15:00:00Z,26.6955,-81.8138,1.31,6.83,11111222 
SCCF RECON,ioos:station:SCCF:18:1,2019-10-04T16:00:00Z,26.6955,-81.8138,1.25,6.68,11111222 
SCCF RECON,ioos:station:SCCF:18:1,2019-10-04T17:00:00Z,26.6955,-81.8138,1.201,7.02,11111222 
SCCF RECON,ioos:station:SCCF:18:1,2019-10-04T18:00:00Z,26.6955,-81.8138,1.13,6.57,11111222 
SCCF RECON,ioos:station:SCCF:18:1,2019-10-04T19:00:00Z,26.6955,-81.8138,1.11,6.5,11111222 
SCCF RECON,ioos:station:SCCF:18:1,2019-10-04T20:00:00Z,26.6955,-81.8138,1.02,6.79,11111222 
SCCF RECON,ioos:station:SCCF:18:1,2019-10-04T21:00:00Z,26.6955,-81.8138,0.97,6.8,11111222 
SCCF RECON,ioos:station:SCCF:18:1,2019-10-04T22:00:00Z,26.6955,-81.8138,0.94,6.96,11111222 
SCCF RECON,ioos:station:SCCF:18:1,2019-10-04T23:00:00Z,26.6955,-81.8138,0.917,7.91,11111222 
SCCF RECON,ioos:station:SCCF:18:1,2019-10-05T04:00:00Z,26.6955,-81.8138,1.09,7.24,11111222 
SCCF RECON,ioos:station:SCCF:18:1,2019-10-05T06:00:00Z,26.6955,-81.8138,1.14,6.88,11111222 
SCCF RECON,ioos:station:SCCF:18:1,2019-10-05T07:00:00Z,26.6955,-81.8138,1.12,6.79,11111222 
SCCF RECON,ioos:station:SCCF:18:1,2019-10-05T08:00:00Z,26.6955,-81.8138,1.11,6.77,11111222 
SCCF RECON,ioos:station:SCCF:18:1,2019-10-05T09:00:00Z,26.6955,-81.8138,1.107,6.83,11111222 
SCCF RECON,ioos:station:SCCF:18:1,2019-10-05T10:00:00Z,26.6955,-81.8138,1.119,8.42,11111222 
SCCF RECON,ioos:station:SCCF:18:1,2019-10-05T11:00:00Z,26.6955,-81.8138,1.131,8.3,11111222 
SCCF RECON,ioos:station:SCCF:18:1,2019-10-05T12:00:00Z,26.6955,-81.8138,1.141,8.58,11111222 
SCCF RECON,ioos:station:SCCF:18:1,2019-10-05T13:00:00Z,26.6955,-81.8138,1.163,9.22,11111222 
SCCF RECON,ioos:station:SCCF:18:1,2019-10-05T15:00:00Z,26.6955,-81.8138,1.253,6.93,11111222 
SCCF RECON,ioos:station:SCCF:18:1,2019-10-05T16:00:00Z,26.6955,-81.8138,1.28,7.39,11111222 
SCCF RECON,ioos:station:SCCF:18:1,2019-10-05T17:00:00Z,26.6955,-81.8138,1.21,7.12,11111222 
SCCF RECON,ioos:station:SCCF:18:1,2019-10-05T18:00:00Z,26.6955,-81.8138,1.14,7.12,11111222 
SCCF RECON,ioos:station:SCCF:18:1,2019-10-05T19:00:00Z,26.6955,-81.8138,1.103,7.21,11111222 
SCCF RECON,ioos:station:SCCF:18:1,2019-10-05T20:00:00Z,26.6955,-81.8138,1.03,7.3,11111222 
SCCF RECON,ioos:station:SCCF:18:1,2019-10-05T21:00:00Z,26.6955,-81.8138,0.94,7.39,11111222 
SCCF RECON,ioos:station:SCCF:18:1,2019-10-05T22:00:00Z,26.6955,-81.8138,0.87,7.7,11111222 
SCCF RECON,ioos:station:SCCF:18:1,2019-10-05T23:00:00Z,26.6955,-81.8138,0.86,7.99,11111222 
SCCF RECON,ioos:station:SCCF:18:1,2019-10-06T04:00:00Z,26.6955,-81.8138,0.99,8.66,11111222 
SCCF RECON,ioos:station:SCCF:18:1,2019-10-06T05:00:00Z,26.6955,-81.8138,1.03,7.61,11111222 
SCCF RECON,ioos:station:SCCF:18:1,2019-10-06T06:00:00Z,26.6955,-81.8138,1.062,7.67,11111222 
SCCF RECON,ioos:station:SCCF:18:1,2019-10-06T07:00:00Z,26.6955,-81.8138,1.08,7.37,11111222 
SCCF RECON,ioos:station:SCCF:18:1,2019-10-06T08:00:00Z,26.6955,-81.8138,1.107,7.68,11111222 
SCCF RECON,ioos:station:SCCF:18:1,2019-10-06T09:00:00Z,26.6955,-81.8138,1.113,7.83,11111222 
SCCF RECON,ioos:station:SCCF:18:1,2019-10-06T10:00:00Z,26.6955,-81.8138,1.08,8.12,11111222 
SCCF RECON,ioos:station:SCCF:18:1,2019-10-06T11:00:00Z,26.6955,-81.8138,1.04,9.4,11111222 
SCCF RECON,ioos:station:SCCF:18:1,2019-10-06T12:00:00Z,26.6955,-81.8138,1.028,8.91,11111222 
SCCF RECON,ioos:station:SCCF:18:1,2019-10-06T13:00:00Z,26.6955,-81.8138,1.07,9.8,11111222 
SCCF RECON,ioos:station:SCCF:18:1,2019-10-06T14:00:00Z,26.6955,-81.8138,1.123,8.2,11111222 
SCCF RECON,ioos:station:SCCF:18:1,2019-10-06T15:00:00Z,26.6955,-81.8138,1.19,7.79,11111222 
SCCF RECON,ioos:station:SCCF:18:1,2019-10-06T16:00:00Z,26.6955,-81.8138,1.187,8.07,11111222 
SCCF RECON,ioos:station:SCCF:18:1,2019-10-06T17:00:00Z,26.6955,-81.8138,1.19,8.1,11111222 
SCCF RECON,ioos:station:SCCF:18:1,2019-10-06T18:00:00Z,26.6955,-81.8138,1.13,7.92,11111222 
SCCF RECON,ioos:station:SCCF:18:1,2019-10-06T19:00:00Z,26.6955,-81.8138,1.07,7.78,11111222 
SCCF RECON,ioos:station:SCCF:18:1,2019-10-06T20:00:00Z,26.6955,-81.8138,1.04,7.83,11111222 
SCCF RECON,ioos:station:SCCF:18:1,2019-10-06T21:00:00Z,26.6955,-81.8138,0.98,7.67,11111222 
SCCF RECON,ioos:station:SCCF:18:1,2019-10-06T23:00:00Z,26.6955,-81.8138,0.86,7.67,11111222 
SCCF RECON,ioos:station:SCCF:18:1,2019-10-07T05:00:00Z,26.6955,-81.8138,0.96,8.58,11111222 
SCCF RECON,ioos:station:SCCF:18:1,2019-10-07T06:00:00Z,26.6955,-81.8138,1.0,8.01,11111222 
SCCF RECON,ioos:station:SCCF:18:1,2019-10-07T07:00:00Z,26.6955,-81.8138,1.03,7.86,11111222 
SCCF RECON,ioos:station:SCCF:18:1,2019-10-07T08:00:00Z,26.6955,-81.8138,1.05,7.82,11111222 
SCCF RECON,ioos:station:SCCF:18:1,2019-10-07T09:00:00Z,26.6955,-81.8138,1.099,7.81,11111222 
SCCF RECON,ioos:station:SCCF:18:1,2019-10-07T10:00:00Z,26.6955,-81.8138,1.06,7.75,11111222 
SCCF RECON,ioos:station:SCCF:18:1,2019-10-07T11:00:00Z,26.6955,-81.8138,1.05,7.97,11111222 
SCCF RECON,ioos:station:SCCF:18:1,2019-10-07T12:00:00Z,26.6955,-81.8138,1.03,8.69,11111222 
SCCF RECON,ioos:station:SCCF:18:1,2019-10-07T13:00:00Z,26.6955,-81.8138,1.02,8.19,11111222 
SCCF RECON,ioos:station:SCCF:18:1,2019-10-07T15:00:00Z,26.6955,-81.8138,1.13,9.63,11111222 
SCCF RECON,ioos:station:SCCF:18:1,2019-10-07T16:00:00Z,26.6955,-81.8138,1.17,9.99,11111222 
SCCF RECON,ioos:station:SCCF:18:1,2019-10-07T17:00:00Z,26.6955,-81.8138,1.22,8.24,11111222 
SCCF RECON,ioos:station:SCCF:18:1,2019-10-07T18:00:00Z,26.6955,-81.8138,1.24,7.93,11111222 
SCCF RECON,ioos:station:SCCF:18:1,2019-10-07T19:00:00Z,26.6955,-81.8138,1.19,8.24,11111222 
SCCF RECON,ioos:station:SCCF:18:1,2019-10-07T20:00:00Z,26.6955,-81.8138,1.14,8.82,11111222 
SCCF RECON,ioos:station:SCCF:18:1,2019-10-07T21:00:00Z,26.6955,-81.8138,1.072,7.87,11111222 
SCCF RECON,ioos:station:SCCF:18:1,2019-10-07T22:00:00Z,26.6955,-81.8138,1.054,7.97,11111222 
SCCF RECON,ioos:station:SCCF:18:1,2019-10-07T23:00:00Z,26.6955,-81.8138,1.03,7.94,11111222 
SCCF RECON,ioos:station:SCCF:18:1,2019-10-08T04:00:00Z,26.6955,-81.8138,1.011,8.28,11111222 
SCCF RECON,ioos:station:SCCF:18:1,2019-10-08T05:00:00Z,26.6955,-81.8138,1.059,8.95,11111222 
SCCF RECON,ioos:station:SCCF:18:1,2019-10-08T06:00:00Z,26.6955,-81.8138,1.09,9.01,11111222 
SCCF RECON,ioos:station:SCCF:18:1,2019-10-08T07:00:00Z,26.6955,-81.8138,1.12,9.89,11111222 
SCCF RECON,ioos:station:SCCF:18:1,2019-10-08T08:00:00Z,26.6955,-81.8138,1.16,8.92,11111222 
SCCF RECON,ioos:station:SCCF:18:1,2019-10-08T09:00:00Z,26.6955,-81.8138,1.2,8.16,11111222 
SCCF RECON,ioos:station:SCCF:18:1,2019-10-08T11:00:00Z,26.6955,-81.8138,1.18,8.46,11111222 
SCCF RECON,ioos:station:SCCF:18:1,2019-10-08T12:00:00Z,26.6955,-81.8138,1.13,8.29,11111222 
SCCF RECON,ioos:station:SCCF:18:1,2019-10-08T13:00:00Z,26.6955,-81.8138,1.13,9.1,11111222 
SCCF RECON,ioos:station:SCCF:18:1,2019-10-08T14:00:00Z,26.6955,-81.8138,1.13,9.73,11111222 
SCCF RECON,ioos:station:SCCF:18:1,2019-10-08T15:00:00Z,26.6955,-81.8138,1.172,10.98,11111222 
SCCF RECON,ioos:station:SCCF:18:1,2019-10-08T16:00:00Z,26.6955,-81.8138,1.2,10.73,11111222 
SCCF RECON,ioos:station:SCCF:18:1,2019-10-08T17:00:00Z,26.6955,-81.8138,1.25,10.56,11111222 
SCCF RECON,ioos:station:SCCF:18:1,2019-10-08T18:00:00Z,26.6955,-81.8138,1.29,10.03,11111222 
SCCF RECON,ioos:station:SCCF:18:1,2019-10-08T19:00:00Z,26.6955,-81.8138,1.3,9.79,11111222 
SCCF RECON,ioos:station:SCCF:18:1,2019-10-08T20:00:00Z,26.6955,-81.8138,1.29,9.05,11111222 
SCCF RECON,ioos:station:SCCF:18:1,2019-10-08T21:00:00Z,26.6955,-81.8138,1.22,10.11,11111222 
SCCF RECON,ioos:station:SCCF:18:1,2019-10-08T22:00:00Z,26.6955,-81.8138,1.2,9.98,11111222 
SCCF RECON,ioos:station:SCCF:18:1,2019-10-08T23:00:00Z,26.6955,-81.8138,1.176,8.17,11111222 
SCCF RECON,ioos:station:SCCF:18:1,2019-10-09T04:00:00Z,26.6955,-81.8138,1.073,8.96,11111222 
SCCF RECON,ioos:station:SCCF:18:1,2019-10-09T06:00:00Z,26.6955,-81.8138,1.14,9.02,11111222 
SCCF RECON,ioos:station:SCCF:18:1,2019-10-09T07:00:00Z,26.6955,-81.8138,1.179,9.54,11111222 
SCCF RECON,ioos:station:SCCF:18:1,2019-10-09T08:00:00Z,26.6955,-81.8138,1.2,8.74,11111222 
SCCF RECON,ioos:station:SCCF:18:1,2019-10-09T09:00:00Z,26.6955,-81.8138,1.2,8.36,11111222 
SCCF RECON,ioos:station:SCCF:18:1,2019-10-09T10:00:00Z,26.6955,-81.8138,1.18,8.53,11111222 
SCCF RECON,ioos:station:SCCF:18:1,2019-10-09T11:00:00Z,26.6955,-81.8138,1.171,8.69,11111222 
SCCF RECON,ioos:station:SCCF:18:1,2019-10-09T12:00:00Z,26.6955,-81.8138,1.12,8.07,11111222 
SCCF RECON,ioos:station:SCCF:18:1,2019-10-09T13:00:00Z,26.6955,-81.8138,1.092,8.12,11111222 
SCCF RECON,ioos:station:SCCF:18:1,2019-10-09T14:00:00Z,26.6955,-81.8138,1.08,8.39,11111222 
SCCF RECON,ioos:station:SCCF:18:1,2019-10-09T15:00:00Z,26.6955,-81.8138,34.504,9.16,11111222 
SCCF RECON,ioos:station:SCCF:18:1,2019-10-09T16:00:00Z,26.6955,-81.8138,35.577,10.35,11111222 
SCCF RECON,ioos:station:SCCF:18:1,2019-10-09T17:00:00Z,26.6955,-81.8138,35.465,10.13,11111222 
SCCF RECON,ioos:station:SCCF:18:1,2019-10-09T18:00:00Z,26.6955,-81.8138,35.303,9.91,11111222 
SCCF RECON,ioos:station:SCCF:18:1,2019-10-09T19:00:00Z,26.6955,-81.8138,34.736,9.66,11111222 
SCCF RECON,ioos:station:SCCF:18:1,2019-10-09T20:00:00Z,26.6955,-81.8138,34.428,8.61,11111222 
SCCF RECON,ioos:station:SCCF:18:1,2019-10-09T21:00:00Z,26.6955,-81.8138,1.22,8.21,11111222 
SCCF RECON,ioos:station:SCCF:18:1,2019-10-09T22:00:00Z,26.6955,-81.8138,1.18,9.3,11111222 
SCCF RECON,ioos:station:SCCF:18:1,2019-10-09T23:00:00Z,26.6955,-81.8138,1.093,8.04,11111222 
SCCF RECON,ioos:station:SCCF:18:1,2019-10-10T04:00:00Z,26.6955,-81.8138,0.95,8.43,11111222 
SCCF RECON,ioos:station:SCCF:18:1,2019-10-10T05:00:00Z,26.6955,-81.8138,0.99,8.41,11111222 
SCCF RECON,ioos:station:SCCF:18:1,2019-10-10T06:00:00Z,26.6955,-81.8138,1.04,8.67,11111222 
SCCF RECON,ioos:station:SCCF:18:1,2019-10-10T07:00:00Z,26.6955,-81.8138,1.06,8.64,11111222 
SCCF RECON,ioos:station:SCCF:18:1,2019-10-10T08:00:00Z,26.6955,-81.8138,1.1,8.3,11111222 
SCCF RECON,ioos:station:SCCF:18:1,2019-10-10T09:00:00Z,26.6955,-81.8138,1.13,8.06,11111222 
SCCF RECON,ioos:station:SCCF:18:1,2019-10-10T10:00:00Z,26.6955,-81.8138,1.07,7.65,11111222 
SCCF RECON,ioos:station:SCCF:18:1,2019-10-10T11:00:00Z,26.6955,-81.8138,1.02,7.74,11111222 
SCCF RECON,ioos:station:SCCF:18:1,2019-10-10T12:00:00Z,26.6955,-81.8138,0.97,7.96,11111222 
SCCF RECON,ioos:station:SCCF:18:1,2019-10-10T13:00:00Z,26.6955,-81.8138,0.93,7.85,11111222 
SCCF RECON,ioos:station:SCCF:18:1,2019-10-10T14:00:00Z,26.6955,-81.8138,0.939,8.05,11111222 
SCCF RECON,ioos:station:SCCF:18:1,2019-10-10T15:00:00Z,26.6955,-81.8138,0.952,8.91,11111222 
SCCF RECON,ioos:station:SCCF:18:1,2019-10-10T16:00:00Z,26.6955,-81.8138,1.0,8.52,11111222 
SCCF RECON,ioos:station:SCCF:18:1,2019-10-10T18:00:00Z,26.6955,-81.8138,1.09,9.18,11111222 
SCCF RECON,ioos:station:SCCF:18:1,2019-10-10T19:00:00Z,26.6955,-81.8138,1.158,8.32,11111222 
SCCF RECON,ioos:station:SCCF:18:1,2019-10-10T20:00:00Z,26.6955,-81.8138,1.169,7.87,11111222 
SCCF RECON,ioos:station:SCCF:18:1,2019-10-10T21:00:00Z,26.6955,-81.8138,1.1,7.94,11111222 
SCCF RECON,ioos:station:SCCF:18:1,2019-10-10T22:00:00Z,26.6955,-81.8138,0.98,7.82,11111222 
SCCF RECON,ioos:station:SCCF:18:1,2019-10-10T23:00:00Z,26.6955,-81.8138,0.932,7.78,11111222 
SCCF RECON,ioos:station:SCCF:18:1,2019-10-11T04:00:00Z,26.6955,-81.8138,0.85,8.45,11111222 
SCCF RECON,ioos:station:SCCF:18:1,2019-10-11T05:00:00Z,26.6955,-81.8138,0.86,8.06,11111222 
SCCF RECON,ioos:station:SCCF:18:1,2019-10-11T06:00:00Z,26.6955,-81.8138,0.906,8.88,11111222 
SCCF RECON,ioos:station:SCCF:18:1,2019-10-11T07:00:00Z,26.6955,-81.8138,0.95,9.17,11111222 
SCCF RECON,ioos:station:SCCF:18:1,2019-10-11T08:00:00Z,26.6955,-81.8138,0.99,8.63,11111222 
SCCF RECON,ioos:station:SCCF:18:1,2019-10-11T09:00:00Z,26.6955,-81.8138,1.047,8.19,11111222 
SCCF RECON,ioos:station:SCCF:18:1,2019-10-11T11:00:00Z,26.6955,-81.8138,1.0,7.91,11111222 
SCCF RECON,ioos:station:SCCF:18:1,2019-10-11T12:00:00Z,26.6955,-81.8138,0.95,7.79,11111222 
SCCF RECON,ioos:station:SCCF:18:1,2019-10-11T13:00:00Z,26.6955,-81.8138,0.92,7.69,11111222 
SCCF RECON,ioos:station:SCCF:18:1,2019-10-11T14:00:00Z,26.6955,-81.8138,0.878,7.66,11111222 
SCCF RECON,ioos:station:SCCF:18:1,2019-10-11T15:00:00Z,26.6955,-81.8138,0.87,8.2,11111222 
SCCF RECON,ioos:station:SCCF:18:1,2019-10-11T16:00:00Z,26.6955,-81.8138,0.88,8.3,11111222 
SCCF RECON,ioos:station:SCCF:18:1,2019-10-11T17:00:00Z,26.6955,-81.8138,0.931,8.34,11111222 
SCCF RECON,ioos:station:SCCF:18:1,2019-10-11T18:00:00Z,26.6955,-81.8138,0.99,8.74,11111222 
SCCF RECON,ioos:station:SCCF:18:1,2019-10-11T19:00:00Z,26.6955,-81.8138,1.04,8.68,11111222 
SCCF RECON,ioos:station:SCCF:18:1,2019-10-11T20:00:00Z,26.6955,-81.8138,1.1,8.02,11111222 
SCCF RECON,ioos:station:SCCF:18:1,2019-10-11T21:00:00Z,26.6955,-81.8138,1.144,8.08,11111222 
SCCF RECON,ioos:station:SCCF:18:1,2019-10-11T22:00:00Z,26.6955,-81.8138,1.081,7.93,11111222 
SCCF RECON,ioos:station:SCCF:18:1,2019-10-11T23:00:00Z,26.6955,-81.8138,0.99,7.83,11111222 
SCCF RECON,ioos:station:SCCF:18:1,2019-10-12T04:00:00Z,26.6955,-81.8138,0.89,8.13,11111222 
SCCF RECON,ioos:station:SCCF:18:1,2019-10-12T05:00:00Z,26.6955,-81.8138,0.92,8.06,11111222 
SCCF RECON,ioos:station:SCCF:18:1,2019-10-12T06:00:00Z,26.6955,-81.8138,0.968,8.18,11111222 
SCCF RECON,ioos:station:SCCF:18:1,2019-10-12T07:00:00Z,26.6955,-81.8138,1.0,8.41,11111222 
SCCF RECON,ioos:station:SCCF:18:1,2019-10-12T08:00:00Z,26.6955,-81.8138,1.03,8.41,11111222 
SCCF RECON,ioos:station:SCCF:18:1,2019-10-12T09:00:00Z,26.6955,-81.8138,1.087,8.0,11111222 
SCCF RECON,ioos:station:SCCF:18:1,2019-10-12T10:00:00Z,26.6955,-81.8138,1.09,7.73,11111222 
SCCF RECON,ioos:station:SCCF:18:1,2019-10-12T11:00:00Z,26.6955,-81.8138,1.04,7.67,11111222 
SCCF RECON,ioos:station:SCCF:18:1,2019-10-12T12:00:00Z,26.6955,-81.8138,0.98,7.71,11111222 
SCCF RECON,ioos:station:SCCF:18:1,2019-10-12T13:00:00Z,26.6955,-81.8138,0.93,7.64,11111222 
SCCF RECON,ioos:station:SCCF:18:1,2019-10-12T14:00:00Z,26.6955,-81.8138,0.89,7.63,11111222 
SCCF RECON,ioos:station:SCCF:18:1,2019-10-12T15:00:00Z,26.6955,-81.8138,0.856,7.58,11111222 
SCCF RECON,ioos:station:SCCF:18:1,2019-10-12T16:00:00Z,26.6955,-81.8138,0.87,8.36,11111222 
SCCF RECON,ioos:station:SCCF:18:1,2019-10-12T17:00:00Z,26.6955,-81.8138,0.92,7.83,11111222 
SCCF RECON,ioos:station:SCCF:18:1,2019-10-12T18:00:00Z,26.6955,-81.8138,0.97,8.39,11111222 
SCCF RECON,ioos:station:SCCF:18:1,2019-10-12T19:00:00Z,26.6955,-81.8138,1.02,8.65,11111222 
SCCF RECON,ioos:station:SCCF:18:1,2019-10-12T20:00:00Z,26.6955,-81.8138,1.061,8.69,11111222 
SCCF RECON,ioos:station:SCCF:18:1,2019-10-12T21:00:00Z,26.6955,-81.8138,1.117,8.23,11111222 
SCCF RECON,ioos:station:SCCF:18:1,2019-10-12T22:00:00Z,26.6955,-81.8138,1.13,8.19,11111222 
SCCF RECON,ioos:station:SCCF:18:1,2019-10-12T23:00:00Z,26.6955,-81.8138,1.09,7.86,11111222 
SCCF RECON,ioos:station:SCCF:18:1,2019-10-13T04:00:00Z,26.6955,-81.8138,0.89,7.79,11111222 
SCCF RECON,ioos:station:SCCF:18:1,2019-10-13T05:00:00Z,26.6955,-81.8138,0.89,8.01,11111222 
SCCF RECON,ioos:station:SCCF:18:1,2019-10-13T06:00:00Z,26.6955,-81.8138,32.421,8.13,11111222 
SCCF RECON,ioos:station:SCCF:18:1,2019-10-13T07:00:00Z,26.6955,-81.8138,33.114,8.46,11111222 
SCCF RECON,ioos:station:SCCF:18:1,2019-10-13T08:00:00Z,26.6955,-81.8138,32.884,8.56,11111222 
SCCF RECON,ioos:station:SCCF:18:1,2019-10-13T09:00:00Z,26.6955,-81.8138,32.506,8.12,11111222 
SCCF RECON,ioos:station:SCCF:18:1,2019-10-13T10:00:00Z,26.6955,-81.8138,32.05,7.94,11111222 
SCCF RECON,ioos:station:SCCF:18:1,2019-10-13T11:00:00Z,26.6955,-81.8138,31.953,7.64,11111222 
SCCF RECON,ioos:station:SCCF:18:1,2019-10-13T12:00:00Z,26.6955,-81.8138,31.829,7.58,11111222 
SCCF RECON,ioos:station:SCCF:18:1,2019-10-13T13:00:00Z,26.6955,-81.8138,31.206,7.44,11111222 
SCCF RECON,ioos:station:SCCF:18:1,2019-10-13T14:00:00Z,26.6955,-81.8138,31.546,7.31,11111222 
SCCF RECON,ioos:station:SCCF:18:1,2019-10-13T15:00:00Z,26.6955,-81.8138,32.123,7.18,11111222 
SCCF RECON,ioos:station:SCCF:18:1,2019-10-13T16:00:00Z,26.6955,-81.8138,31.416,7.65,11111222 
SCCF RECON,ioos:station:SCCF:18:1,2019-10-13T17:00:00Z,26.6955,-81.8138,31.345,7.85,11111222 
SCCF RECON,ioos:station:SCCF:18:1,2019-10-13T18:00:00Z,26.6955,-81.8138,32.068,7.91,11111222 
SCCF RECON,ioos:station:SCCF:18:1,2019-10-13T19:00:00Z,26.6955,-81.8138,32.772,8.68,11111222 
SCCF RECON,ioos:station:SCCF:18:1,2019-10-13T20:00:00Z,26.6955,-81.8138,32.943,8.94,11111222 
SCCF RECON,ioos:station:SCCF:18:1,2019-10-13T21:00:00Z,26.6955,-81.8138,32.922,8.66,11111222 
SCCF RECON,ioos:station:SCCF:18:1,2019-10-13T22:00:00Z,26.6955,-81.8138,32.316,8.07,11111222 
SCCF RECON,ioos:station:SCCF:18:1,2019-10-13T23:00:00Z,26.6955,-81.8138,32.492,7.55,11111222 
SCCF RECON,ioos:station:SCCF:18:1,2019-10-14T04:00:00Z,26.6955,-81.8138,33.419,7.14,11111222 
SCCF RECON,ioos:station:SCCF:18:1,2019-10-14T05:00:00Z,26.6955,-81.8138,33.898,7.64,11111222 
SCCF RECON,ioos:station:SCCF:18:1,2019-10-14T06:00:00Z,26.6955,-81.8138,1.076,8.01,11111222 
SCCF RECON,ioos:station:SCCF:18:1,2019-10-14T07:00:00Z,26.6955,-81.8138,1.08,8.88,11111222 
SCCF RECON,ioos:station:SCCF:18:1,2019-10-14T08:00:00Z,26.6955,-81.8138,32.721,8.83,11111222 
SCCF RECON,ioos:station:SCCF:18:1,2019-10-14T09:00:00Z,26.6955,-81.8138,32.339,8.96,11111222 
SCCF RECON,ioos:station:SCCF:18:1,2019-10-14T10:00:00Z,26.6955,-81.8138,31.925,8.02,11111222 
SCCF RECON,ioos:station:SCCF:18:1,2019-10-14T11:00:00Z,26.6955,-81.8138,31.576,7.27,11111222 
SCCF RECON,ioos:station:SCCF:18:1,2019-10-14T12:00:00Z,26.6955,-81.8138,31.644,7.13,11111222 
SCCF RECON,ioos:station:SCCF:18:1,2019-10-14T13:00:00Z,26.6955,-81.8138,31.518,7.06,11111222 
SCCF RECON,ioos:station:SCCF:18:1,2019-10-14T14:00:00Z,26.6955,-81.8138,31.655,6.85,11111222 
SCCF RECON,ioos:station:SCCF:18:1,2019-10-14T15:00:00Z,26.6955,-81.8138,31.857,6.83,11111222 